This is the latest recevied weather packets stored in our database for station/object WW5AH-9. If no packets are shown the sender has not sent any weather packets the latest 1 day(s).
| Time | Temp. | Humidity | Pressure | Rain* | Wind** | Luminosity | Snow |
|---|---|---|---|---|---|---|---|
| 1778001495 | 24.44° C | 79% | 1005.2 hPa | 0 mm | 1.34 m/s, 188° | 297 W/m² | - |
| 1778001193 | 23.89° C | 80% | 1005.3 hPa | 0 mm | 1.79 m/s, 192° | 178 W/m² | - |
| 1778000889 | 23.89° C | 79% | 1005.4 hPa | 0 mm | 4.47 m/s, 255° | 186 W/m² | - |
| 1778000586 | 24.44° C | 79% | 1005.2 hPa | 0 mm | 1.79 m/s, 237° | 177 W/m² | - |
| 1778000281 | 24.44° C | 80% | 1005.2 hPa | 0 mm | 2.24 m/s, 178° | 172 W/m² | - |
| 1777999977 | 23.89° C | 81% | 1005.2 hPa | 0 mm | 1.79 m/s, 171° | 242 W/m² | - |
| 1777999673 | 23.89° C | 80% | 1005.3 hPa | 0 mm | 1.79 m/s, 157° | 260 W/m² | - |
| 1777999370 | 23.89° C | 81% | 1005.3 hPa | 0 mm | 2.68 m/s, 170° | 158 W/m² | - |
| 1777999069 | 23.89° C | 82% | 1005.5 hPa | 0 mm | 0.89 m/s, 125° | 258 W/m² | - |
| 1777998767 | 23.33° C | 82% | 1005.4 hPa | 0 mm | 0.89 m/s, 166° | 193 W/m² | - |
| 1777998464 | 23.33° C | 82% | 1005.3 hPa | 0 mm | 2.24 m/s, 162° | 144 W/m² | - |
| 1777998161 | 23.33° C | 82% | 1005.3 hPa | 0 mm | 3.58 m/s, 189° | 239 W/m² | - |
| 1777997857 | 23.33° C | 82% | 1005.3 hPa | 0 mm | 0.45 m/s, 87° | 137 W/m² | - |
| 1777997555 | 23.89° C | 82% | 1005.5 hPa | 0 mm | 3.13 m/s, 120° | 337 W/m² | - |
| 1777997252 | 23.33° C | 83% | 1005.7 hPa | 0 mm | 1.79 m/s, 237° | 294 W/m² | - |
| 1777996950 | 23.33° C | 83% | 1005.5 hPa | 0 mm | 3.13 m/s, 210° | 243 W/m² | - |
| 1777996646 | 22.78° C | 84% | 1005.5 hPa | 0 mm | 1.34 m/s, 158° | 357 W/m² | - |
| 1777996343 | 22.78° C | 84% | 1005.5 hPa | 0 mm | 2.24 m/s, 179° | 277 W/m² | - |
| 1777996039 | 22.78° C | 85% | 1005.5 hPa | 0 mm | 1.79 m/s, 221° | 174 W/m² | - |
| 1777995735 | 22.78° C | 85% | 1005.5 hPa | 0 mm | 2.24 m/s, 168° | 156 W/m² | - |
| 1777995432 | 22.22° C | 85% | 1005.8 hPa | 0 mm | 1.79 m/s, 221° | 112 W/m² | - |
| 1777995129 | 22.22° C | 85% | 1005.7 hPa | 0 mm | 0.45 m/s, 215° | 176 W/m² | - |
| 1777994826 | 22.22° C | 86% | 1005.7 hPa | 0 mm | 1.79 m/s, 198° | 99 W/m² | - |
| 1777994522 | 22.22° C | 86% | 1005.6 hPa | 0 mm | 1.34 m/s, 193° | 97 W/m² | - |
| 1777994217 | 21.67° C | 86% | 1005.7 hPa | 0 mm | 0.45 m/s, 189° | 101 W/m² | - |
* Rain latest hour (hover to see other rain measurements)
** Current wind speed in m/s (hover to see current wind gust speed)